SL-14 DEB, 45325

Orbit data source: Space-Track

SL-14 DEB, 45325 is space debris in LEO originally from a launch on Thu, 15 Aug 1991 UTC launched from the Plesetsk Missile And Space Complex (PKMTR). Debris objects in space refer to the collection of defunct objects orbiting the Earth. Examples of debris include non-operational satellites, rocket bodies, and fragments generated from explosions, collisions, or faulty payload assembly.

Loading next visibility...
Identifier
45325, 1991-056BP
Orbit
LEO
Country
Flag of CISCIS
Related business
Manufacturer
Unknown
Mission
Spacecraft
Bus & Motor
Unknown
Mass
Unknown
Launch date (UTC)
1991-08-15 (34 years ago)
Launch vehicle
Unknown
Launch site
Plesetsk Missile And Space Complex (PKMTR)
Object type
Payload
Rocket body
Debris
Shape & HBR
Unknown shape, 0.1 m
Radar Cross Section
Small (<0.1 m²)

Expand to show TLE details & history
Last TLE update: 13 hours ago

TLE from 13 hours ago
0 SL-14 DEB
1 45325U 91056BP  26038.00868655  .00050357  00000-0  14569-1 0  9993
2 45325  82.5286  47.7327 0098570 101.2191 260.0100 14.41405984299667
Epoch: 2026-02-07T00:12Z
TLE epoch observation values (Epoch: 2026-02-07T00:12:30.517Z)
Latitude
-0.00003°
Longitude
-92.53283°
Altitude
769.707 km
Speed
7.463 km/s
True Right ascension
03h 10m 55s
True Declination
0° 00' 00"
Sunlit
Object was in daylight at epoch
Visualization orbit readout
Latitude
Unknown
Longitude
Unknown
Altitude
Unknown
Speed
Unknown
Apparent Right ascension
Unknown
Apparent Declination
Unknown
Sunlit
N/A
Visualization observer readout
Local Sidereal Time
14:58:01
Azimuth
Unknown
Elevation
Unknown
Doppler factor
Unknown
Orbital elements
Apogee altitude
821.202 km
Perigee altitude
680.66 km
Semi-major axis
7,129.068 km
Eccentricity
0.00986
Inclination
82.5286°
RAAN
47.7327°
Arg. of periapsis
101.2191°
True anomaly
258.90004°
Mean anomaly
260.01°
Eccentric anomaly
259.45477°
Mean motion
3.60574 °/min
Orbital period
99.84 mins
BSTAR
0.014569
Loading maneuver chart data...
Computing Atmospheric mass density...
Loading historical data...
Loading historical data...
Loading historical data...
Loading historical data...
Loading historical data...
Loading historical data...
Loading historical data...

Documentation

Showing up to 5 results
|